Location: American Medical Response
(33.3472°N, 96.5511°W)
Time: 09:19:55
(UTC+00:00)

Nadezhda 4 Rocket - Pass Details

Date: 08 December 2021
Orbit: 949 x 992 km, 82.9° (Epoch: 25 January)

Event Time Altitude Azimuth Distance (km) Brightness Sun altitude
Rises 12:26:48 0° 206° (SSW) 3,621 6.9 -10.6°
Reaches altitude 10° 12:29:28 10° 215° (SW) 2,684 6.2 -10.1°
Maximum altitude 12:35:06 37° 281° (WNW) 1,448 4.4 -9.0°
Drops below altitude 10° 12:40:50 10° 348° (NNW) 2,724 6.0 -7.9°
Sets 12:43:34 0° 357° (N) 3,682 6.8 -7.3°
